When you browse on this site, cookies collect data to enhance your experience and personalize the content and advertising you see.
Visit our Privacy Policy to learn more. By continuing to use the site, you agree to this use of cookies and data.
  • In Schweiz
  • Länderverzeichnis
  • Für 7 Tage
  • Wassertemperatur
  • Satellitenkarten
  • Wetterkarte
  • Widgets
  • user-avatar
    Anmelden

    Stündliche Wetter La Rioja

    Heute, 24 Mai, Freitag

    Zeit Temperatur Niederschläge Wind Luftdruck Luftfeuchtigkeit
    00:00 +10°C° 0 mm 1 m/S 717 mmHg 33%
    01:00 +9°C° 0 mm 1 m/S 717 mmHg 32%
    02:00 +9°C° 0 mm 1 m/S 716 mmHg 33%
    03:00 +9°C° 0 mm 1 m/S 716 mmHg 32%
    04:00 +9°C° 0 mm 1 m/S 715 mmHg 31%
    05:00 +9°C° 0 mm 1 m/S 715 mmHg 30%
    06:00 +10°C° 0 mm 1 m/S 715 mmHg 27%
    07:00 +11°C° 0 mm 1 m/S 715 mmHg 24%
    08:00 +14°C° 0 mm 1 m/S 716 mmHg 20%
    09:00 +16°C° 0 mm 2 m/S 716 mmHg 17%
    10:00 +18°C° 0 mm 2 m/S 716 mmHg 14%
    11:00 +21°C° 0 mm 2 m/S 716 mmHg 10%
    12:00 +23°C° 0 mm 2 m/S 715 mmHg 11%
    13:00 +22°C° 0 mm 3 m/S 715 mmHg 11%
    14:00 +24°C° 0 mm 3 m/S 714 mmHg 11%
    15:00 +22°C° 0 mm 3 m/S 714 mmHg 13%
    16:00 +23°C° 0 mm 2 m/S 713 mmHg 14%
    17:00 +21°C° 0 mm 2 m/S 713 mmHg 16%
    18:00 +19°C° 0 mm 2 m/S 713 mmHg 21%
    19:00 +16°C° 0 mm 2 m/S 713 mmHg 25%
    20:00 +14°C° 0 mm 2 m/S 713 mmHg 30%
    21:00 +14°C° 0 mm 2 m/S 713 mmHg 31%
    22:00 +14°C° 0 mm 2 m/S 713 mmHg 32%
    23:00 +14°C° 0 mm 2 m/S 713 mmHg 33%

    Morgen, 25 Mai, Samstag

    Zeit Temperatur Niederschläge Wind Luftdruck Luftfeuchtigkeit
    00:00 +13°C° 0 mm 2 m/S 712 mmHg 36%
    01:00 +13°C° 0 mm 2 m/S 712 mmHg 40%
    02:00 +12°C° 0 mm 2 m/S 712 mmHg 43%
    03:00 +12°C° 0 mm 2 m/S 711 mmHg 43%
    04:00 +13°C° 0 mm 2 m/S 711 mmHg 42%
    05:00 +13°C° 0 mm 1 m/S 711 mmHg 42%
    06:00 +13°C° 0 mm 1 m/S 711 mmHg 42%
    07:00 +13°C° 0 mm 1 m/S 711 mmHg 43%
    08:00 +13°C° 0 mm 1 m/S 711 mmHg 44%
    09:00 +15°C° 0 mm 2 m/S 711 mmHg 40%
    10:00 +17°C° 0 mm 2 m/S 711 mmHg 35%
    11:00 +19°C° 0 mm 2 m/S 711 mmHg 31%
    12:00 +20°C° 0 mm 2 m/S 710 mmHg 30%
    13:00 +21°C° 0 mm 3 m/S 710 mmHg 29%
    14:00 +22°C° 0 mm 3 m/S 709 mmHg 28%
    15:00 +21°C° 0 mm 2 m/S 709 mmHg 30%
    16:00 +20°C° 0 mm 2 m/S 708 mmHg 32%
    17:00 +20°C° 0 mm 2 m/S 708 mmHg 33%
    18:00 +18°C° 0 mm 2 m/S 709 mmHg 38%
    19:00 +17°C° 0 mm 2 m/S 709 mmHg 42%
    20:00 +16°C° 0 mm 2 m/S 709 mmHg 47%
    21:00 +15°C° 0 mm 2 m/S 709 mmHg 51%
    22:00 +15°C° 0 mm 2 m/S 710 mmHg 54%
    23:00 +14°C° 0 mm 2 m/S 710 mmHg 58%

    übermorgen, 26 Mai, Sonntag

    Zeit Temperatur Niederschläge Wind Luftdruck Luftfeuchtigkeit
    00:00 +14°C° 0 mm 2 m/S 710 mmHg 59%
    01:00 +14°C° 0 mm 2 m/S 709 mmHg 61%
    02:00 +13°C° 0 mm 2 m/S 709 mmHg 62%
    03:00 +13°C° 0 mm 2 m/S 709 mmHg 62%
    04:00 +12°C° 0 mm 3 m/S 709 mmHg 62%
    05:00 +12°C° 0 mm 3 m/S 709 mmHg 63%
    06:00 +12°C° 0 mm 3 m/S 710 mmHg 60%
    07:00 +12°C° 0 mm 3 m/S 710 mmHg 58%
    08:00 +13°C° 0 mm 3 m/S 711 mmHg 56%
    09:00 +16°C° 0 mm 3 m/S 711 mmHg 50%
    10:00 +18°C° 0 mm 3 m/S 712 mmHg 44%
    11:00 +20°C° 0 mm 3 m/S 712 mmHg 38%
    12:00 +21°C° 0 mm 3 m/S 712 mmHg 35%
    13:00 +22°C° 0 mm 3 m/S 711 mmHg 33%
    14:00 +22°C° 0 mm 3 m/S 711 mmHg 30%
    15:00 +23°C° 0 mm 2 m/S 711 mmHg 32%
    16:00 +21°C° 0 mm 2 m/S 711 mmHg 34%
    17:00 +21°C° 0 mm 1 m/S 711 mmHg 36%
    18:00 +19°C° 0 mm 1 m/S 712 mmHg 42%
    19:00 +18°C° 0 mm 1 m/S 712 mmHg 47%
    20:00 +15°C° 0 mm 1 m/S 713 mmHg 53%
    21:00 +15°C° 0 mm 1 m/S 713 mmHg 52%
    22:00 +14°C° 0 mm 0 m/S 714 mmHg 52%
    23:00 +14°C° 0 mm 0 m/S 714 mmHg 51%

    27 Mai, Montag

    Zeit Temperatur Niederschläge Wind Luftdruck Luftfeuchtigkeit
    00:00 +13°C° 0 mm 0 m/S 714 mmHg 52%
    01:00 +13°C° 0 mm 0 m/S 714 mmHg 52%
    02:00 +13°C° 0 mm 0 m/S 714 mmHg 53%
    03:00 +14°C° 0 mm 1 m/S 714 mmHg 51%
    04:00 +14°C° 0 mm 1 m/S 714 mmHg 48%
    05:00 +14°C° 0 mm 1 m/S 714 mmHg 46%
    06:00 +14°C° 0 mm 1 m/S 714 mmHg 45%
    07:00 +14°C° 0 mm 1 m/S 714 mmHg 45%
    08:00 +14°C° 0 mm 1 m/S 715 mmHg 44%
    09:00 +16°C° 0 mm 1 m/S 715 mmHg 42%
    10:00 +18°C° 0 mm 2 m/S 715 mmHg 39%
    11:00 +20°C° 0 mm 2 m/S 715 mmHg 37%
    12:00 +20°C° 0 mm 2 m/S 714 mmHg 37%
    13:00 +21°C° 0 mm 3 m/S 713 mmHg 38%
    14:00 +22°C° 0 mm 3 m/S 712 mmHg 38%
    15:00 +21°C° 0 mm 3 m/S 712 mmHg 40%
    16:00 +21°C° 0 mm 2 m/S 712 mmHg 42%
    17:00 +20°C° 0 mm 2 m/S 712 mmHg 45%
    18:00 +19°C° 0 mm 2 m/S 712 mmHg 52%
    19:00 +18°C° 0 mm 1 m/S 712 mmHg 60%
    20:00 +15°C° 0 mm 1 m/S 712 mmHg 67%
    21:00 +14°C° 0 mm 1 m/S 712 mmHg 68%
    22:00 +14°C° 0 mm 1 m/S 713 mmHg 68%
    23:00 +14°C° 0 mm 1 m/S 713 mmHg 68%

    28 Mai, Dienstag

    Zeit Temperatur Niederschläge Wind Luftdruck Luftfeuchtigkeit
    00:00 +13°C° 0 mm 1 m/S 712 mmHg 69%
    01:00 +13°C° 0 mm 1 m/S 712 mmHg 69%
    02:00 +13°C° 0 mm 1 m/S 712 mmHg 69%
    03:00 +13°C° 0 mm 1 m/S 712 mmHg 69%
    04:00 +12°C° 0 mm 2 m/S 712 mmHg 69%
    05:00 +12°C° 0 mm 2 m/S 711 mmHg 69%
    06:00 +12°C° 0 mm 2 m/S 712 mmHg 69%
    07:00 +13°C° 0 mm 2 m/S 712 mmHg 68%
    08:00 +13°C° 0 mm 2 m/S 712 mmHg 67%
    09:00 +15°C° 0 mm 2 m/S 712 mmHg 61%
    10:00 +16°C° 0 mm 2 m/S 712 mmHg 56%
    11:00 +18°C° 0 mm 2 m/S 712 mmHg 50%
    12:00 +19°C° 0 mm 2 m/S 712 mmHg 49%
    13:00 +19°C° 0 mm 2 m/S 711 mmHg 47%
    14:00 +20°C° 0 mm 2 m/S 710 mmHg 46%
    15:00 +20°C° 0 mm 2 m/S 710 mmHg 48%
    16:00 +19°C° 0 mm 2 m/S 710 mmHg 51%
    17:00 +20°C° 0 mm 1 m/S 710 mmHg 53%
    18:00 +18°C° 0 mm 2 m/S 711 mmHg 58%
    19:00 +16°C° 0 mm 2 m/S 711 mmHg 63%
    20:00 +15°C° 0 mm 2 m/S 711 mmHg 68%
    21:00 +15°C° 0 mm 2 m/S 711 mmHg 70%
    22:00 +15°C° 0 mm 2 m/S 711 mmHg 72%
    23:00 +14°C° 0 mm 2 m/S 711 mmHg 75%

    29 Mai, Mittwoch

    Zeit Temperatur Niederschläge Wind Luftdruck Luftfeuchtigkeit
    00:00 +14°C° 0 mm 2 m/S 711 mmHg 75%
    01:00 +14°C° 0 mm 2 m/S 710 mmHg 75%
    02:00 +14°C° 0 mm 2 m/S 710 mmHg 75%
    03:00 +13°C° 0 mm 2 m/S 709 mmHg 75%
    04:00 +13°C° 0 mm 2 m/S 709 mmHg 75%
    05:00 +13°C° 0 mm 2 m/S 709 mmHg 74%
    06:00 +13°C° 0 mm 2 m/S 709 mmHg 73%
    07:00 +13°C° 0 mm 2 m/S 709 mmHg 71%
    08:00 +14°C° 0 mm 2 m/S 710 mmHg 70%
    09:00 +14°C° 0 mm 3 m/S 710 mmHg 70%
    10:00 +16°C° 0 mm 3 m/S 710 mmHg 69%
    11:00 +17°C° 0 mm 4 m/S 710 mmHg 69%
    12:00 +18°C° 0 mm 4 m/S 709 mmHg 69%
    13:00 +18°C° 0 mm 4 m/S 708 mmHg 69%
    14:00 +18°C° 0 mm 4 m/S 708 mmHg 69%
    15:00 +18°C° 0 mm 4 m/S 708 mmHg 71%
    16:00 +18°C° 0 mm 3 m/S 708 mmHg 72%
    17:00 +17°C° 0 mm 3 m/S 708 mmHg 74%
    18:00 +15°C° 0 mm 4 m/S 709 mmHg 75%
    19:00 +15°C° 0 mm 4 m/S 709 mmHg 76%
    20:00 +14°C° 0 mm 4 m/S 710 mmHg 77%
    21:00 +14°C° 0 mm 4 m/S 710 mmHg 73%
    22:00 +14°C° 0 mm 3 m/S 711 mmHg 69%
    23:00 +14°C° 0 mm 3 m/S 711 mmHg 65%
    Mehr zeigen